Theta_e
319 314 317 324 317 313 316 317 317 319 320 322 323 321 322 329 338 338 339 329 326 326 324 324 324 322 321 321 322 322 321 320 320 319 319 319 318 318 318 318 317 317 318 317 317 317 317 317 317
316 316 323 323 315 316 315 316 320 319 321 322 323 324 331 336 338 339 333 327 326 326 325 324 324 323 322 322 322 322 322 321 321 320 320 320 319 319 319 319 319 319 319 319 319 318 318 318 318
319 322 326 317 313 317 316 318 320 319 320 321 321 323 327 339 339 337 330 328 326 326 326 325 324 323 323 323 323 323 323 322 322 321 321 320 320 320 320 319 319 319 319 319 319 319 319 319 318
326 328 327 321 318 316 318 317 316 318 322 322 322 323 337 337 339 336 330 328 326 326 326 325 325 323 323 323 323 323 323 322 322 322 321 321 320 320 320 320 319 319 319 320 319 319 319 319 319
321 326 322 318 318 317 317 318 319 318 319 322 325 325 337 339 339 335 330 328 326 326 326 325 325 324 323 323 323 323 323 322 322 322 322 321 321 321 320 320 320 320 320 320 320 320 319 319 319
330 323 321 321 322 320 320 321 321 321 325 324 323 324 337 339 340 336 337 328 326 327 326 325 326 324 323 323 323 324 323 323 323 322 322 321 321 320 320 320 320 320 320 320 320 320 320 320 319
327 319 321 321 322 321 322 324 326 324 324 325 326 323 337 338 339 339 338 326 326 326 327 326 325 323 322 322 323 324 323 323 323 322 321 321 320 319 319 319 319 319 319 319 320 320 320 320 320
321 324 329 324 324 324 327 327 327 326 325 326 327 322 325 336 338 339 335 326 325 326 326 327 325 324 322 322 322 324 323 322 322 321 321 320 320 319 319 319 319 319 319 319 319 319 320 320 320
319 319 326 328 328 327 327 325 326 325 325 324 326 326 327 337 338 338 330 325 325 325 326 326 326 325 323 322 322 323 324 323 322 322 321 320 320 319 319 319 319 319 318 318 318 319 319 320 320
313 317 321 323 326 325 324 323 323 324 323 323 324 325 327 340 343 337 329 326 325 326 326 326 325 325 323 322 322 322 324 323 323 323 323 322 322 320 319 318 318 318 318 317 317 317 318 319 319
312 316 319 320 320 321 321 321 321 320 321 322 322 323 325 327 342 341 331 329 328 326 327 327 326 325 323 322 322 322 323 324 325 324 323 323 322 322 320 319 319 318 318 317 317 317 317 317 318
311 313 314 315 315 317 318 318 319 319 320 320 322 323 323 325 327 339 340 336 328 328 325 326 326 325 324 323 323 323 324 325 325 326 325 324 324 323 322 320 319 318 318 317 317 316 316 316 316
310 311 311 312 312 313 314 317 319 319 319 320 321 322 323 324 325 327 337 336 337 331 327 326 327 326 325 324 323 324 324 325 325 326 325 324 324 323 322 322 322 320 319 318 317 316 315 315 315
310 310 310 311 311 312 313 314 315 316 317 317 318 319 320 323 326 327 327 334 336 336 330 327 327 329 326 325 324 325 324 324 325 324 323 324 326 326 328 328 329 328 327 322 320 320 317 316 318
310 309 308 310 311 312 314 313 314 316 316 317 317 318 318 322 324 326 327 332 336 336 338 335 328 327 327 326 326 329 335 337 337 330 326 326 331 332 333 334 335 336 335 332 330 329 325 325 325
308 306 306 308 309 311 313 313 314 316 314 316 316 317 317 318 321 324 327 330 330 335 336 336 340 334 333 331 335 338 338 337 338 340 335 334 331 330 332 335 336 337 338 340 339 338 336 332 331
306 308 308 308 308 309 311 311 311 313 313 313 314 314 314 314 316 320 323 327 328 331 336 340 343 343 339 339 335 336 335 334 334 339 335 331 331 330 330 332 336 339 339 342 342 341 340 335 333
309 309 309 309 309 310 309 310 311 312 312 312 313 313 313 314 314 315 318 324 327 329 333 336 341 344 341 338 338 337 335 335 335 338 335 334 330 330 332 330 333 339 341 342 344 343 341 338 335
309 310 309 308 309 309 308 310 310 310 311 311 312 313 313 313 314 314 315 317 321 326 328 330 336 340 338 337 337 336 336 336 334 337 334 331 330 332 330 329 331 335 338 341 345 344 342 339 336
308 307 309 309 312 311 311 311 311 309 309 311 312 312 313 313 313 313 314 315 318 320 324 326 326 326 331 334 336 336 336 335 334 336 333 332 331 332 329 329 330 332 334 338 345 345 343 340 337
310 311 312 312 311 311 310 310 310 310 310 311 312 312 312 312 312 313 313 314 315 316 319 323 323 324 329 334 334 333 334 334 335 334 332 331 333 332 329 330 329 330 333 337 341 346 344 341 338
310 312 312 311 311 310 311 310 310 310 310 309 310 311 312 312 312 312 312 313 315 316 316 319 323 325 325 326 328 331 332 335 333 331 331 332 334 330 329 328 329 332 336 340 342 345 344 341 339
309 312 310 311 310 310 310 310 309 308 309 309 309 311 313 314 314 314 314 315 315 316 316 317 321 325 326 327 329 328 329 335 333 332 334 333 329 328 326 326 332 338 339 342 344 345 343 341 339
311 309 307 308 308 310 309 309 310 308 307 308 312 313 313 313 313 314 315 315 315 315 316 317 320 323 325 324 326 331 330 333 334 334 332 328 326 326 325 326 329 339 342 344 344 344 342 340 339
308 306 306 308 309 311 309 311 310 310 311 313 313 312 312 312 312 311 312 315 315 315 316 317 317 322 326 323 327 333 332 334 334 334 329 327 326 326 324 327 333 343 344 344 343 342 341 339 337
308 307 305 308 309 308 309 311 310 313 313 313 312 312 312 311 311 311 311 313 316 317 317 316 317 318 320 327 323 327 333 335 334 330 326 325 325 326 325 330 343 345 344 344 341 339 338 338 336
309 310 307 305 309 311 310 310 309 312 312 311 311 311 311 311 311 312 312 312 313 319 319 321 319 319 320 321 328 326 330 331 329 328 324 326 327 327 329 339 345 345 345 341 338 338 337 337 338
307 307 308 306 313 313 311 311 311 309 310 312 311 310 311 311 312 312 313 313 313 319 318 322 324 324 321 321 322 324 325 327 327 325 324 327 328 327 338 345 345 345 343 339 337 337 338 338 337
307 308 310 309 311 312 312 310 308 310 311 311 310 311 311 311 313 314 314 315 316 318 317 321 326 327 323 322 322 322 323 324 323 323 325 328 330 333 345 346 345 344 340 337 337 338 338 338 336
308 309 310 311 311 312 313 312 310 309 308 309 310 311 312 313 313 314 314 315 317 316 318 321 325 331 324 322 323 323 323 323 323 324 326 332 330 342 345 346 344 340 338 338 339 339 338 334 332
Wind_Speed
5 2 3 2 3 4 3 7 2 7 9 3 9 9 11 21 8 6 14 40 38 40 39 36 32 31 29 30 30 29 28 26 25 24 23 20 18 17 15 14 13 12 11 10 9 8 8 7 7
3 2 1 2 4 1 5 4 3 6 11 25 27 14 7 8 24 8 30 43 42 42 40 38 35 33 31 30 29 28 28 27 25 23 21 19 17 15 14 12 11 10 9 8 8 7 7 6 6
2 3 1 4 3 5 5 5 2 7 21 22 9 24 10 5 16 25 30 43 47 43 42 39 37 35 32 31 29 28 27 26 25 22 19 17 16 14 13 11 10 9 8 6 6 6 6 6 5
4 2 1 3 10 6 4 6 6 14 24 7 12 14 9 16 10 32 41 44 48 44 42 40 38 37 35 31 29 28 27 25 23 21 18 17 15 13 12 10 9 8 7 6 5 4 4 4 4
5 2 1 4 6 5 4 7 10 9 8 21 30 8 7 13 18 33 47 45 50 46 43 41 38 38 36 33 29 27 25 24 22 20 18 16 15 13 12 10 8 7 7 6 5 4 4 3 3
3 3 1 6 10 2 3 6 7 5 17 24 16 28 5 8 20 36 42 47 46 45 43 41 38 38 37 33 30 26 25 23 21 20 18 16 15 13 12 11 10 9 9 8 8 7 6 6 4
4 4 5 6 9 5 1 2 4 8 8 9 25 4 7 13 15 33 43 51 48 45 44 42 40 38 36 35 30 26 25 23 21 20 19 17 16 15 14 14 13 12 12 11 11 10 9 9 8
4 3 4 5 12 5 1 13 13 12 9 20 17 7 22 20 22 37 45 51 49 47 43 42 41 39 38 36 32 28 25 24 21 20 19 18 18 18 18 17 16 15 15 15 14 13 12 13 12
5 3 7 9 6 4 16 8 10 16 13 20 12 22 36 9 26 37 44 48 49 47 44 43 41 39 39 37 34 30 26 25 22 21 20 20 20 21 21 20 18 18 18 18 17 17 16 16 16
5 4 6 2 3 7 25 7 19 13 27 24 24 28 23 6 19 36 43 45 45 45 45 43 41 41 40 37 35 33 29 27 25 24 23 23 21 22 22 22 22 21 21 21 21 21 20 20 20
4 6 3 3 6 8 12 24 19 15 22 16 21 27 22 17 9 18 28 32 41 46 44 43 42 40 38 37 36 33 31 28 26 25 24 24 22 23 26 26 25 25 24 24 24 24 24 22 22
4 5 4 4 13 13 13 24 21 24 35 29 22 23 25 19 13 17 19 19 31 36 46 45 43 40 39 38 36 34 31 30 27 25 26 26 25 26 27 28 28 26 26 26 26 26 26 25 24
4 3 8 10 11 12 18 19 18 38 43 31 26 23 22 18 18 18 26 23 27 33 41 45 43 40 40 41 38 35 33 31 28 27 28 28 28 28 29 29 28 27 26 27 27 27 27 27 25
5 5 9 4 9 10 9 13 12 38 22 27 26 22 18 15 15 13 13 30 31 30 40 46 45 42 45 43 38 35 31 30 27 31 32 30 29 29 28 29 28 25 24 25 25 24 25 25 24
6 5 6 4 9 8 12 13 22 36 22 27 30 30 22 15 17 16 14 12 21 31 35 42 46 44 44 40 31 31 23 19 24 31 32 33 28 28 26 26 25 21 19 21 22 21 23 23 22
4 4 3 5 6 7 8 23 5 12 15 22 22 25 19 16 14 16 15 14 13 18 31 43 43 43 40 39 36 32 24 17 23 27 30 32 27 27 27 27 26 20 19 19 19 19 20 20 20
5 1 2 7 5 4 6 6 4 20 11 18 22 19 22 20 12 16 18 20 20 18 25 33 37 38 33 34 30 15 21 34 27 34 31 32 28 27 30 30 28 22 21 21 19 20 19 20 19
5 2 2 5 6 2 11 17 6 13 13 14 18 24 28 29 24 18 14 21 22 23 25 28 32 39 41 43 42 37 32 39 50 45 35 33 30 28 30 32 30 27 23 24 23 22 20 21 17
4 4 4 5 5 6 7 17 12 10 13 12 18 21 23 24 26 21 19 15 24 27 30 30 32 33 36 39 41 43 41 40 40 51 39 37 34 29 29 33 30 30 26 26 26 24 23 21 17
1 1 3 4 6 9 13 22 15 5 7 13 17 19 23 30 30 27 22 20 15 22 33 35 37 37 48 56 54 52 50 47 46 50 42 40 34 31 30 32 31 32 28 28 28 26 27 22 20
2 2 3 5 6 5 8 20 8 3 7 18 18 21 20 24 33 33 29 23 21 22 21 36 40 36 32 43 51 49 52 53 52 48 46 39 37 31 31 31 33 31 28 28 27 26 27 23 21
3 1 3 6 6 4 4 14 18 13 10 6 13 18 26 24 28 29 33 30 25 25 23 23 34 38 34 41 46 50 55 57 55 51 48 39 35 30 30 33 33 31 27 24 23 24 24 21 25
5 2 3 3 5 3 3 4 19 5 13 14 11 15 13 16 21 24 26 27 28 26 26 24 26 34 33 33 35 46 54 58 57 52 41 32 28 28 29 32 33 29 26 21 20 22 22 22 23
1 3 5 4 1 3 7 6 16 3 5 8 5 13 15 18 22 23 25 27 30 30 27 25 22 30 38 36 35 42 49 56 57 45 33 30 31 30 30 32 29 24 22 21 20 20 21 19 20
5 6 4 4 2 5 4 4 10 16 16 4 5 15 17 20 22 25 27 28 30 30 30 28 21 24 32 31 31 32 47 52 51 43 33 31 30 29 27 26 22 21 21 19 16 21 19 20 19
4 7 4 5 3 11 6 7 6 5 9 8 12 18 22 26 29 30 29 26 28 30 29 29 28 23 26 35 33 31 30 43 44 37 32 30 31 26 22 20 20 19 19 16 19 18 17 17 16
2 4 5 3 2 1 5 7 8 8 8 7 13 12 22 27 33 37 35 30 26 28 28 26 29 30 27 31 36 34 34 41 42 37 33 32 30 24 20 18 21 20 18 15 16 16 14 15 16
6 4 2 2 4 5 5 6 9 8 10 9 11 14 27 31 37 43 45 34 24 25 29 26 28 30 32 28 35 44 44 43 42 38 34 34 30 23 20 22 22 20 16 15 18 17 16 16 17
2 2 2 2 3 4 6 7 7 10 9 10 13 22 27 35 40 39 39 31 25 23 28 25 30 31 31 29 31 37 46 45 41 38 34 32 28 23 22 23 21 18 18 18 18 17 17 17 15
6 6 5 4 4 5 3 12 8 12 10 7 19 26 31 31 32 32 37 35 25 23 23 23 26 31 30 27 32 32 38 41 38 31 30 28 24 23 22 21 21 20 20 20 18 17 14 13 14
Wind_Direction
337 268 189 197 55 65 256 253 260 319 331 233 306 279 240 240 180 214 180 171 173 167 162 162 164 161 161 154 150 150 150 150 148 146 143 143 142 141 140 136 130 124 121 116 110 106 105 104 102
336 163 195 115 100 126 266 249 273 239 267 300 308 294 246 231 195 195 159 170 175 168 164 164 167 165 165 160 157 157 156 155 154 153 152 153 153 151 148 144 142 139 132 127 121 120 114 109 109
179 193 232 113 150 202 226 225 122 288 311 299 296 311 273 231 198 176 176 171 174 172 166 167 169 169 168 168 165 165 165 163 163 162 163 165 165 163 164 165 163 157 151 149 144 141 132 131 132
165 159 76 109 236 253 210 292 344 333 324 349 304 298 268 250 216 178 172 174 175 174 169 169 170 172 173 175 173 172 173 173 174 173 176 177 179 179 180 179 179 176 174 177 174 164 162 155 141
181 135 11 255 256 246 221 270 309 290 285 309 321 281 249 240 208 182 173 176 177 175 172 173 171 176 177 180 180 179 180 181 183 184 184 188 192 193 194 195 199 201 202 209 212 213 214 203 181
175 114 101 247 250 270 273 260 279 275 303 322 332 327 264 216 190 183 179 178 178 175 174 176 176 180 180 185 185 185 187 189 190 197 197 199 206 209 212 214 218 223 225 227 232 235 244 250 240
199 134 214 253 266 308 279 307 273 279 335 324 333 273 302 232 220 189 185 180 179 180 176 178 181 182 184 188 189 192 195 197 199 203 208 210 218 224 226 230 230 235 239 241 244 242 250 258 259
212 133 211 232 252 269 10 342 308 320 309 331 345 350 332 298 207 189 186 182 182 182 182 182 183 185 187 189 193 196 199 203 206 211 215 220 226 232 234 236 238 243 246 247 249 250 251 257 263
189 195 225 230 253 302 303 354 300 319 305 321 332 350 340 282 204 191 187 184 185 185 185 187 186 189 192 191 194 198 203 207 211 216 220 226 232 236 238 241 245 249 252 252 253 254 253 256 259
178 196 217 278 254 314 302 302 304 329 318 305 320 333 354 277 208 192 190 190 189 189 191 192 192 194 196 196 199 199 207 210 215 223 227 231 237 242 246 247 249 251 252 254 255 257 256 255 259
210 235 143 260 296 316 300 299 310 310 292 288 312 318 324 324 219 208 198 206 197 195 196 197 199 200 201 201 205 206 211 216 221 228 234 239 241 247 249 250 251 252 256 257 258 259 259 259 261
251 227 223 259 277 283 273 292 287 284 270 291 298 302 305 305 302 232 224 223 213 214 203 200 203 204 207 209 211 211 213 222 226 234 239 243 246 250 253 255 258 258 260 262 266 265 266 263 263
194 320 329 318 308 289 280 267 272 278 277 293 297 296 289 273 291 276 234 237 234 230 217 209 209 210 214 217 216 217 219 227 232 241 247 249 254 256 260 262 263 263 264 264 267 270 269 268 266
321 293 295 299 286 262 257 270 264 265 282 298 300 302 297 276 278 276 265 235 241 248 226 220 215 216 217 220 221 224 227 237 243 249 252 256 259 260 262 265 266 266 268 267 267 271 272 271 268
288 327 346 253 226 216 242 258 241 268 289 286 290 292 297 285 268 261 277 268 238 242 233 231 224 219 218 222 222 227 218 251 259 259 256 256 258 261 262 264 263 265 269 267 265 268 267 266 265
352 55 38 278 321 268 200 258 320 302 332 297 301 302 306 297 275 275 255 248 254 250 243 238 229 223 216 216 215 215 236 275 254 257 258 258 257 262 266 266 265 266 271 264 264 266 268 266 261
11 330 310 307 274 278 195 304 354 322 330 315 316 322 323 328 316 279 264 250 248 244 245 239 232 221 211 214 228 241 236 263 268 265 257 255 261 266 269 270 271 267 270 268 267 266 267 262 259
291 322 261 256 297 307 297 289 298 299 297 295 306 316 325 323 319 321 297 265 244 239 236 245 236 217 215 223 226 223 219 222 254 255 249 253 260 261 265 271 272 272 268 270 267 266 263 263 262
272 286 292 274 328 342 289 302 309 289 292 289 300 312 317 317 321 326 317 312 265 245 237 235 234 232 216 220 231 233 237 240 244 245 244 250 256 260 265 268 271 273 273 278 271 266 260 259 254
269 319 321 295 336 339 315 298 302 270 268 287 293 301 313 315 316 320 323 317 318 268 246 238 235 239 238 242 246 247 246 233 235 237 242 248 256 259 263 267 270 274 277 275 269 262 258 254 246
353 135 301 292 321 276 318 295 299 310 317 306 288 292 305 313 313 312 312 310 301 293 280 254 250 246 251 240 240 241 239 235 238 240 243 248 249 254 261 266 270 272 271 271 269 262 254 253 245
337 0 316 323 354 302 88 292 289 290 278 258 283 302 307 312 306 302 299 299 293 289 296 284 259 243 248 236 242 247 244 239 239 243 246 245 249 252 260 267 268 263 261 264 267 259 251 250 243
227 237 275 272 266 275 194 249 283 14 283 272 264 274 310 319 307 305 303 298 287 286 286 294 271 248 241 236 245 243 243 240 240 246 245 245 250 254 263 268 260 256 253 258 256 246 243 248 241
5 9 339 30 20 308 227 201 290 292 278 313 347 325 315 323 321 313 313 304 297 284 282 282 292 249 244 250 250 242 238 237 241 242 242 247 250 254 266 267 260 252 248 250 249 245 245 244 238
74 54 330 338 1 238 296 321 258 284 307 216 280 301 314 319 322 322 319 314 299 294 280 281 288 268 247 245 245 244 235 238 243 236 242 249 254 258 273 269 257 239 241 243 249 244 245 232 239
241 155 164 250 236 282 296 247 252 203 246 264 277 301 316 323 325 321 316 309 303 296 290 283 283 273 258 248 249 242 238 233 232 234 246 254 256 261 274 262 245 237 238 234 248 228 225 224 235
247 185 195 193 236 282 232 281 293 218 267 271 259 291 304 314 317 316 314 305 299 297 292 286 279 273 261 243 247 242 236 232 235 239 251 250 251 259 256 246 235 234 233 244 226 216 221 228 225
178 179 282 356 278 246 253 253 246 268 267 282 288 287 304 310 310 309 311 301 288 291 297 282 278 273 262 247 242 244 246 242 245 249 252 248 247 250 233 232 227 231 230 240 219 219 230 217 222
328 306 123 196 207 240 282 254 218 242 244 255 272 282 297 306 306 305 307 296 282 291 297 283 274 270 256 248 249 244 240 241 248 251 248 243 239 230 222 224 227 230 214 219 207 219 211 214 220
202 219 168 194 251 236 234 262 241 264 285 280 273 278 290 296 314 310 312 304 279 300 298 298 276 267 258 250 244 244 241 243 243 240 238 228 227 217 218 221 223 214 210 207 204 203 204 214 225